Location: Buchberg
(46.9333°N, 15.8500°E)
Time: 19:41:57
(UTC+00:00)

Cosmos 1356 - Pass Details

Date: 14 July 2020
Orbit: 443 x 448 km, 81.1° (Epoch: 05 August)

Event Time Altitude Azimuth Distance (km) Brightness Sun altitude
Exits shadow 02:04:38 15° 211° (SSW) 1,317 5.1 -10.1°
Maximum altitude 02:07:20 48° 284° (WNW) 592 3.8 -9.8°
Drops below altitude 10° 02:10:42 10° 1° (N) 1,583 6.9 -9.4°
Sets 02:12:49 0° 7° (N) 2,459 8.1 -9.2°
